User: anonymous   Login
Location: Unspecified
(0.0000°N, 0.0000°E)
Time: 01:00:23
(UTC+00:00)
Language:

NOAA 2 - Orbit

View from above orbital plane
View from above orbital plane
View from above satellite
View from above satellite

Ground track
Ground track

The orbit data is extracted from the following two-line orbital elements,

1  6235U 72082A   18265.50377618 -.00000023 +00000-0 +13805-3 0  9990
2  6235 101.7500 229.3450 0003828 168.2236 300.0925 12.53108867101121
Epoch (UTC): 22 September 2018 12:05:26
Eccentricity: 0.0003828
inclination: 101.7500°
perigee height: 1448 km
apogee height: 1454 km
right ascension of ascending node: 229.3450°
argument of perigee: 168.2236°
revolutions per day: 12.53108867
mean anomaly at epoch: 300.0925°
orbit number at epoch: 10112

The dashed part of the orbit path shows where the satellite is in the earth's shadow,  

DLR